Andover, NJ

10:21 AM EST on January 20, 2018 (GMT -0500)
Andover

Weather History for K12N - February, 2013

Change the Weather History Date:

Saturday, February 9, 2013

  Actual Average (KFWN) Record (KFWN)
Temperature  
Mean Temperature 24 °F -  
Max Temperature 30 °F 34 °F 56 °F (1965)
Min Temperature 17 °F 10 °F -23 °F (1967)
Degree Days  
Heating Degree Days 42    
Moisture  
Dew Point 12 °F    
Average Humidity 60    
Maximum Humidity 92    
Minimum Humidity 35    
Precipitation  
Precipitation 0.18 in - - ()
Sea Level Pressure  
Sea Level Pressure 30.10 in    
Wind  
Wind Speed 6 mph (NNW)    
Max Wind Speed 16 mph    
Max Gust Speed 32 mph    
Averages and records for this station are not official NWS values.
T = Trace of Precipitation, MM = Missing Value Source: NWS Daily Summary

Daily Weather History Graph

Daily Weather History Graph

Search for Another Location

Airport or City:

Trip Planner

Search our weather history database for the weather conditions in past years. The results will help you decide how hot, cold, wet, or windy it might be!

Date:

Astronomy

Feb. 09, 2013 Rise Set
Actual Time 7:00 AM EST 5:26 PM EST
Civil Twilight 6:32 AM EST 5:54 PM EST
Nautical Twilight 5:59 AM EST 6:27 PM EST
Astronomical Twilight 5:27 AM EST 6:59 PM EST
Moon 6:10 AM EST (2/9) 5:06 PM EST (2/9)
Length of Visible Light 11h 22m
Length of Day
10h 25m
Waning Crescent, 0% of the Moon is Illuminated
Feb 9
Waning Crescent
Feb 10
New
Feb 17
First Quarter
Feb 25
Full
Mar 4
Last Quarter

Hourly Weather History & Observations

Time (EST) Temp. Windchill Dew Point Humidity Pressure Visibility Wind Dir Wind Speed Gust Speed Precip Events Conditions
12:54 AM 28.0 °F - 26.1 °F 92% 29.80 in - Calm Calm - 0.08 in   Unknown
1:54 AM 28.9 °F - 27.0 °F 92% 29.82 in - Calm Calm - 0.07 in   Unknown
2:54 AM 28.9 °F 25.2 °F 26.1 °F 89% 29.84 in - Variable 3.5 mph - 0.01 in   Unknown
3:54 AM 28.9 °F 22.8 °F 25.0 °F 85% 29.86 in - North 5.8 mph - 0.01 in   Unknown
4:54 AM 28.0 °F 24.2 °F 21.0 °F 75% 29.89 in - NNW 3.5 mph 20.7 mph 0.01 in   Unknown
5:54 AM 26.1 °F 20.5 °F 19.0 °F 75% 29.92 in - Variable 4.6 mph - N/A   Unknown
6:54 AM 25.0 °F 14.2 °F 16.0 °F 69% 29.97 in - NNW 11.5 mph 19.6 mph N/A   Unknown
7:00 AM - - - N/A% - - North - - N/A   Unknown
7:54 AM 23.0 °F 13.9 °F 14.0 °F 68% 30.01 in - NNW 8.1 mph - N/A   Unknown
8:54 AM 23.0 °F 12.4 °F 12.9 °F 65% 30.04 in - NNW 10.4 mph 19.6 mph N/A   Unknown
9:54 AM 24.1 °F 13.1 °F 12.9 °F 62% 30.07 in - North 11.5 mph 19.6 mph N/A   Unknown
10:54 AM 26.1 °F 16.8 °F 10.9 °F 53% 30.09 in - North 9.2 mph 23.0 mph N/A   Unknown
11:54 AM 28.0 °F 18.1 °F 10.9 °F 49% 30.09 in - North 11.5 mph 32.2 mph N/A   Unknown
12:54 PM 28.9 °F 17.3 °F 10.0 °F 45% 30.09 in - North 16.1 mph 29.9 mph N/A   Unknown
1:54 PM 30.9 °F 21.7 °F 8.1 °F 38% 30.12 in - NNW 11.5 mph 18.4 mph N/A   Unknown
2:54 PM 30.9 °F 22.2 °F 6.1 °F 35% 30.13 in - North 10.4 mph 18.4 mph N/A   Unknown
3:54 PM 30.0 °F 20.5 °F 6.1 °F 36% 30.17 in - North 11.5 mph 25.3 mph N/A   Unknown
4:54 PM 27.0 °F 17.3 °F 6.1 °F 41% 30.20 in - North 10.4 mph 20.7 mph N/A   Unknown
5:54 PM 25.0 °F 17.1 °F 5.0 °F 43% 30.23 in - Variable 6.9 mph - N/A   Unknown
6:54 PM 23.0 °F 17.0 °F 5.0 °F 46% 30.26 in - North 4.6 mph - N/A   Unknown
7:54 PM 21.0 °F 12.4 °F 7.0 °F 55% 30.30 in - Variable 6.9 mph 24.2 mph N/A   Unknown
8:54 PM 19.9 °F 11.1 °F 6.1 °F 55% 30.34 in - North 6.9 mph - N/A   Unknown
9:54 PM 19.0 °F 10.0 °F 6.1 °F 57% 30.36 in - Variable 6.9 mph - N/A   Unknown
10:54 PM 17.1 °F 10.0 °F 5.0 °F 59% 30.37 in - NNW 4.6 mph - N/A   Unknown
11:54 PM 17.1 °F 10.0 °F 6.1 °F 62% 30.39 in - NNE 4.6 mph - N/A   Unknown